Location: Kawakawa
(35.3830°S, 174.0670°E)
Time: 14:28:39
(UTC+13:00)

Cosmos 2322 Rocket - Pass Details

Date: 24 January 2019
Orbit: 834 x 849 km, 71.0° (Epoch: 19 February)

Event Time Altitude Azimuth Distance (km) Brightness Sun altitude
Rises 21:11:43 0° 3° (N) 3,377 5.0 -7.0°
Reaches altitude 10° 21:14:18 10° 11° (N) 2,453 4.2 -7.5°
Maximum altitude 21:19:25 36° 76° (ENE) 1,311 2.7 -8.4°
Drops below altitude 10° 21:24:35 10° 141° (SE) 2,491 4.6 -9.3°
Sets 21:27:13 0° 149° (SSE) 3,436 5.4 -9.7°
